Home > Time Zones > World Clock > Weather > Sweden > Lund > Past weeks

Flag for Sweden Weather past 2 weeks in Lund, Sweden

Now
43 °F

Sunny.


Feels Like: 37 °F
Forecast: 36 / 54 °F
Wind: 10 mph from North

Location: Malmo / Sturup

Current Time: Apr 18, 2015 at 9:43:49 AM

Latest Report: Apr 18, 2015 at 9:20 AM


Visibility: 10 mi

Pressure: 30.27 "Hg

Humidity: 66%

Dew point: 32 °F

Location of LundLocation

Historic Weather in Lund — Graph

°F

Lund temperature yesterday

Maximum temperature yesterday: 50 °F (at 12:20 PM)
Minimum temperature yesterday: 36 °F (at 11:50 PM)
Average temperature yesterday: 43 °F

Past Weeks' High & Low Weather Summary

 TemperatureHumidityPressure
High63 °F (Apr 11, 2:50 PM)100% (Apr 4, 1:50 AM)30.48 "Hg (Apr 4, 1:50 AM)
Low27 °F (Apr 5, 4:20 AM)31% (Apr 10, 1:50 PM)29.65 "Hg (Apr 15, 4:50 PM)
Average43 °F77%30.09 "Hg
* Reported Apr 3 8:20 AM — Apr 18 8:20 AM, Lund, Weather by CustomWeather, © 2015

Note: Actual official high and low records may vary slightly from our data, if they occured in-between our weather recording intervals... More about our weather records

Advertising

Lund weather history for previous 24 hours

 ConditionsComfort  
Time TempWeatherWind HumidityBarometerVisibility
8:20 AM
Sat, Apr 18
37 °FSunny.8 mph81%30.24 "Hg10 mi
7:50 AM36 °FSunny.8 mph87%30.24 "Hg10 mi
7:20 AM34 °FSunny.7 mph87%30.24 "Hg10 mi
6:50 AM32 °FClear.8 mph87%30.24 "Hg10 mi
6:20 AM30 °FClear.8 mph86%30.24 "Hg10 mi
5:50 AM30 °FClear.7 mph86%30.21 "Hg10 mi
5:20 AM30 °FClear.7 mph86%30.21 "Hg10 mi
4:50 AM32 °FClear.7 mph87%30.21 "Hg10 mi
4:20 AM30 °FClear.8 mph86%30.21 "Hg10 mi
3:50 AM32 °FClear.7 mph87%30.21 "Hg10 mi
3:20 AM34 °FClear.9 mph81%30.21 "Hg10 mi
2:50 AM34 °FClear.8 mph81%30.21 "Hg10 mi
2:20 AM34 °FClear.6 mph87%30.21 "Hg10 mi
1:50 AM34 °FClear.7 mph87%30.18 "Hg10 mi
1:20 AM34 °FClear.6 mph93%30.18 "Hg10 mi
12:50 AM36 °FPassing clouds.6 mph93%30.18 "HgN/A
12:20 AM36 °FOvercast.6 mph93%30.18 "HgN/A
11:50 PM
Fri, Apr 17
36 °FClear.3 mph93%30.15 "Hg10 mi
11:20 PM37 °FClear.2 mph87%30.15 "Hg10 mi
10:50 PM37 °FClear.2 mph87%30.15 "Hg10 mi
10:20 PM37 °FPassing clouds.2 mph87%30.12 "HgN/A
9:50 PM37 °FPassing clouds.3 mph87%30.12 "HgN/A
9:20 PM37 °FClear.2 mph87%30.12 "Hg10 mi
8:50 PM39 °FSunny.2 mph81%30.09 "Hg10 mi
8:20 PM41 °FSunny.2 mph76%30.07 "Hg10 mi
7:50 PM43 °FScattered clouds.5 mph76%30.07 "HgN/A
7:20 PM46 °FScattered showers. Partly sunny.9 mph57%30.04 "HgN/A
6:50 PM45 °FScattered clouds.6 mph66%30.04 "HgN/A
6:20 PM45 °FPassing clouds.5 mph71%30.01 "HgN/A
5:50 PM43 °FScattered clouds.12 mph76%30.01 "HgN/A
5:20 PM46 °FPartly sunny.10 mph62%29.98 "HgN/A
4:50 PM46 °FPartly sunny.13 mph66%29.98 "HgN/A
4:20 PM48 °FScattered showers. Scattered clouds.7 mph62%29.98 "HgN/A
3:50 PM46 °FScattered showers. Scattered clouds.5 mph66%29.98 "HgN/A
3:20 PM45 °FSprinkles. Partly sunny.10 mph66%29.98 "HgN/A
2:50 PM46 °FScattered showers. Partly sunny.12 mph62%29.95 "HgN/A
2:20 PM46 °FSprinkles. Partly sunny.5 mph71%29.92 "HgN/A
1:50 PM45 °FSprinkles. Partly sunny.13 mph71%29.92 "HgN/A
1:20 PM50 °FBroken clouds.16 mph54%29.92 "HgN/A
12:50 PM50 °FPartly sunny.17 mph54%29.89 "HgN/A
12:20 PM50 °FPartly sunny.16 mph54%29.89 "HgN/A
11:50 AM48 °FPartly sunny.18 mph58%29.89 "HgN/A
11:20 AM48 °FScattered clouds.18 mph50%29.89 "HgN/A
10:50 AM48 °FPassing clouds.13 mph58%29.89 "HgN/A
10:20 AM48 °FPassing clouds.14 mph62%29.86 "HgN/A
9:50 AM46 °FSunny.12 mph66%29.86 "Hg10 mi
9:20 AM46 °FSunny.12 mph71%29.86 "Hg10 mi
Weather by CustomWeather, © 2015

See weather overviewHow to use our weather pages